Location: Pasadena, ca
(34.1243°N, 118.1037°W)
Time: 18:47:45
(UTC-08:00)

N. Korean satellite - Pass Details

Date: 14 November 2017
Orbit: 460 x 515 km, 97.2° (Epoch: 17 November)

Event Time Altitude Azimuth Distance (km) Brightness Sun altitude
Rises 18:53:40 0° 207° (SSW) 2,470 10.6 -25.8°
Reaches altitude 10° 18:56:33 10° 235° (SW) 1,605 9.9 -26.4°
Maximum altitude 18:58:20 14° 266° (W) 1,408 9.8 -26.8°
Drops below altitude 10° 19:00:07 10° 298° (WNW) 1,619 9.9 -27.2°
Sets 19:03:03 0° 325° (NW) 2,510 10.6 -27.8°
